SKYSAT-C8

Last updated on Thu Sep 24 2026 00:03:04 GMT+0000 (Coordinated Universal Time)

1 42990U 17068D 26266.32124606 .00007849 00000+0 20762-3 0 9999 2 42990 97.4650 44.5055 0001438 87.4459 272.6951 15.38679545497390
UTC large
Height (km)
Speed (km/s)
/
Latitude / Longitude
Inclination (degrees)
Orbital Period (minutes)
Azimuth
Elevation
Range (km)
Doppler Factor

Next 0 passes for location: London (51.5072 / 0.1276)

No passes found over London.
SKYSAT-C8